Location: Ciserano
(45.5833°N, 9.6000°E)
Time: 12:37:53
(UTC+00:00)

Cosmos 2074 Rocket - Pass Details

Date: 29 November 2020
Orbit: 968 x 985 km, 82.9° (Epoch: 26 January)

Event Time Altitude Azimuth Distance (km) Brightness Sun altitude
Rises 05:28:11 0° 208° (SSW) 3,648 6.9 -12.2°
Reaches altitude 10° 05:30:50 10° 215° (SW) 2,704 6.2 -11.7°
Maximum altitude 05:36:40 42° 286° (WNW) 1,345 4.3 -10.8°
Drops below altitude 10° 05:42:33 10° 356° (N) 2,721 6.1 -9.8°
Sets 05:45:14 0° 4° (N) 3,674 6.8 -9.4°
